Location: Carri�res
(48.9069°N, 2.1792°E)
Time: 04:33:49
(UTC+00:00)

CZ-4B R/B - Pass Details

Date: 17 January 2021
Orbit: 387 x 458 km, 97.6° (Epoch: 26 February)

Event Time Altitude Azimuth Distance (km) Brightness Sun altitude
Exits shadow 17:10:56 - 32° (NNE) 1,966 4.1 -7.5°
Reaches altitude 10° 17:11:57 10° 41° (NE) 1,601 3.6 -7.6°
Maximum altitude 17:14:43 22° 94° (E) 1,025 2.7 -8.1°
Drops below altitude 10° 17:17:25 10° 148° (SSE) 1,564 4.0 -8.5°
Sets 17:19:43 0° 164° (SSE) 2,414 5.2 -8.8°
